Regional Weather Roundup
Issued by NWS

Home | Current Version | Previous Version | Graphics & Text | Print | Product List | Glossary On
Versions: 1 2 3 4 5 6 7 8 9 10 11 12 13 14 15 16 17 18 19 20 21 22 23 24 25 26 27
000
ASUS45 KCYS 200010
RWRWY

WYOMING REGIONAL WEATHER ROUNDUP
NATIONAL WEATHER SERVICE CHEYENNE WY
600 PM MDT SAT AUG 19 2017

NOTE:  "FAIR" INDICATES FEW OR NO CLOUDS BELOW 12,000 FEET
WITH NO SIGNIFICANT WEATHER AND/OR OBSTRUCTIONS TO VISIBILITY.

WYZ001-200100-
YELLOWSTONE NATIONAL PARK

CITY           SKY/WX    TMP DP  RH WIND       PRES   REMARKS
LK YELLOWSTONE NOT AVBL
W YELLOWSTONE  NOT AVBL

$$
WYZ002>013-054>058-071-098>099-200100-
NORTHERN WYOMING

CITY           SKY/WX    TMP DP  RH WIND       PRES   REMARKS
JACKSON        FAIR      78  22  12 W14G21    30.13S
CODY           FAIR      84  33  16 VRB5      29.98S
GREYBULL       FAIR      90  27  10 N8        29.87F
6HR MIN TEMP:  82; 6HR MAX TEMP:  91;

WORLAND        FAIR      88  38  17 N14       29.86S
6HR MIN TEMP:  83; 6HR MAX TEMP:  92;

SHERIDAN       FAIR      84  36  18 NE3       29.94S
6HR MIN TEMP:  83; 6HR MAX TEMP:  87;

BUFFALO        CLOUDY    80  31  16 N10       30.01S HAZE
6HR MIN TEMP:  80; 6HR MAX TEMP:  87;

GILLETTE       FAIR      83  30  14 NE15      29.95R
6HR MIN TEMP:  83; 6HR MAX TEMP:  91;

HULETT         FAIR      79  34  19 NE7       29.97R
NEWCASTLE      FAIR      90  28  11 CALM      29.91S

$$
WYZ014>020-022>026-101>103-200100-
CENTRAL WYOMING

CITY           SKY/WX    TMP DP  RH WIND       PRES   REMARKS
BIG PINEY      FAIR      80  25  13 NW18G25   30.18S
6HR MIN TEMP:  74; 6HR MAX TEMP:  83;

PINEDALE       FAIR      77  21  12 W18G30    30.19S
DUBOIS         FAIR      75  19  12 NW8G23    30.15S
LANDER           N/A    N/A N/A N/A MISG      30.00S
RIVERTON       FAIR      89  10   5 W15       29.98S
6HR MIN TEMP:  78; 6HR MAX TEMP:  90;

CASPER         FAIR      88  13   6 SW3       29.98F
6HR MIN TEMP:  84; 6HR MAX TEMP:  90;

DOUGLAS        FAIR      89  29  11 CALM      29.97F
6HR MIN TEMP:  86; 6HR MAX TEMP:  90;


$$
WYZ021-027>030-104>119-200100-
SOUTHERN WYOMING

CITY           SKY/WX    TMP DP  RH WIND       PRES   REMARKS
EVANSTON       FAIR      81  28  14 W15       30.20S
6HR MIN TEMP:  78; 6HR MAX TEMP:  84;

FORT BRIDGER   PTCLDY    82  23  11 NW13G18   30.20F
ROCK SPRINGS   FAIR      83  16   8 W12G22    30.14F
6HR MIN TEMP:  78; 6HR MAX TEMP:  85;

RAWLINS        FAIR      82  13   7 W16G26    30.14S
6HR MIN TEMP:  78; 6HR MAX TEMP:  85;

SARATOGA       FAIR      79  23  12 NW7G21    30.18S
LARAMIE        FAIR      80  20  10 NW13      30.17S
6HR MIN TEMP:  78; 6HR MAX TEMP:  83;

CHEYENNE       FAIR      86  19   8 NW12G22   30.07S
6HR MIN TEMP:  84; 6HR MAX TEMP:  89;

TORRINGTON     FAIR      93  24   8 N6        29.89F
6HR MIN TEMP:  89; 6HR MAX TEMP:  95;

PINE BLUFFS    FAIR      88  30  12 N12G20    30.00R

$$




USA.gov is the U.S. government's official web portal to all federal, state and local government web resources and services.